Location: Invercargill
(46.4000°S, 168.3500°E)
Time: 09:31:50
(UTC+12:00)

Cosmos 2058 - Pass Details

Date: 14 May 2021
Orbit: 561 x 584 km, 82.5° (Epoch: 15 June)

Event Time Altitude Azimuth Distance (km) Brightness Sun altitude
Rises 17:55:21 0° 21° (NNE) 2,758 6.4 -5.6°
Reaches altitude 10° 17:57:45 10° 33° (NNE) 1,874 5.4 -6.0°
Maximum altitude 18:01:15 27° 91° (E) 1,123 3.9 -6.5°
Drops below altitude 10° 18:04:48 10° 149° (SSE) 1,909 5.1 -7.1°
Sets 18:07:15 0° 160° (SSE) 2,821 6.1 -7.5°
